Location: Finkenwalde
(53.3770°N, 14.6418°E)
Time: 02:17:57
(UTC+00:00)

Cosmos 1553 Rocket - Pass Details

Date: 05 February 2023
Orbit: 942 x 1007 km, 82.9° (Epoch: 20 March)

Event Time Altitude Azimuth Distance (km) Brightness Sun altitude
Rises 17:00:20 0° 165° (SSE) 3,604 7.0 -10.5°
Reaches altitude 10° 17:02:54 10° 159° (SSE) 2,668 6.2 -10.8°
Maximum altitude 17:08:37 45° 89° (E) 1,294 4.2 -11.7°
Drops below altitude 10° 17:14:27 10° 20° (NNE) 2,721 6.1 -12.5°
Sets 17:17:05 0° 14° (NNE) 3,682 6.8 -12.9°
